7 * 24
多渠道服务支持
ORBCOMM FM 4是ORBCOMM低轨卫星星座的一员,于1998年2月10日成功发射。作为专门服务于机器对机器通信和物联网应用的卫星,它运行在近地轨道,依托窄带通信技术,可实现全球范围低成本短数据传输,提供寻呼、远程监控、数据采集等服务,在民用基础设施监测和军事战场信息传输等领域都具备应用价值。
(ORB)
| 数据来源 | 国际轨道数据 |
| 星历时间: | 2026-06-12T13:43:33+0800 14小时前 查看轨道信息 |
| 半长轴: | 7150.77km |
| 偏心率: | 0.00412 |
| 轨道倾角: | 107.963° |
| 近地点辐角 | 333.291° |
| 升交点赤经 | 159.234° |
| 平近点角 | 26.611° |
| 近地点: | 743.171km |
| 远地点: | 802.095km |
| 周期: | 100.297分钟 |
| 每日圈数: | 14.357328 |